sat.trackr.live / text

‹ back to catalog

STARLINK-2110

NORAD 47389 · 2021-005AS

PAYLOAD ACTIVE UNKNOWN

§ Identity

Operator
Country
US
Launch date
2021-01-20
Launch site
AFETR
Launch vehicle
Mass (kg)
RCS (m²)

Purposes: comms

External: N2YO · Heavens-Above · Gunter

§ Orbital elements

Epoch: 2026-05-25T03:05:58.729344Z

Period
94.01 min
Inclination
53.1599°
Eccentricity
0.0001246
Mean motion
15.31715615 rev/d
Perigee alt
469.8 km
Apogee alt
471.5 km
Semi-major
6,848.8 km
B*
1.6424e-4
RAAN
41.2174°
Arg perigee
95.2358°
Mean anomaly
264.8785°
Rev number
29,510

§ Raw data

STARLINK-21101 47389U 21005AS  26145.12915196  .00004737  00000+0  16424-3 0  99912 47389  53.1599  41.2174 0001246  95.2358 264.8785 15.31715615295101

JSON: /api/v1/satellites/47389 · /tle

For live sub-satellite position, see the globe view (requires WebGL).

§ Visibility from observer

Set your observer location to see the next 7 days of passes ≥ 10°. The values pass through the URL so the page stays shareable.

No JS? Fill the form by hand. The geolocation button needs JavaScript.